星链-4655 (STARLINK-4655 )

导读 | 星芒AI

STARLINK-4655 是 SpaceX Starlink 项目中的一颗低轨通信卫星,用于提供全球宽带互联网服务。该卫星属于 Starlink 群体部署的一部分,运行在约 550 公里的近地轨道上,采用先进的推进和通信技术,支持高速、低延迟的网络连接。作为 Starlink 计划的重要组成部分,它有助于扩大互联网覆盖范围,特别是在偏远和网络基础设施薄弱的地区。

基本信息
目录编号:
53613
目录名称:
STARLINK-4655
国际标识:
2022-104AB
轨道中心:
EARTH
卫星名称:
星链-4655
卫星全名:
星链-4655 (STARLINK-4655 )
卫星状态:
在轨 (已飞行1211 天)
发射日期:
2022-08-28 UTC
国别 :
美国 (US)
星等 :
--
轨道信息
数据来源 国际轨道数据
星历时间: 2025-12-21T06:27:06+0800
10小时前
查看轨道信息
半长轴: 6917.887km
偏心率: 0.0001405
轨道倾角: 53.216°
近地点辐角 91.865°
升交点赤经 227.815°
平近点角 268.250°
近地点: 538.778km
远地点: 540.722km
周期: 95.438分钟
每日圈数: 15.08838
详细信息
固有亮度:
5
最大亮度:
2.5
卫星平台:
Starlink v1.5
覆盖范围:
全球
运营商:
太空探索技术公司
运营商所在国:
美国
制造商(研发单位):
太空探索技术公司
制造商所在国:
美国
使用方式:
暂无
卫星简介
星链(Starlink)计划是由太空探索技术公司(SpaceX)提出的一个巨型低轨卫星互联网星座项目,计划在2019年至2024年间在太空搭建由约1.2万颗卫星组成的“星链”网络,其中1584颗将部署在地球上空550千米处的近地轨道,并从2020年开始工作。该卫星仍在工作。
2D轨道图
3D轨道图
轨道高度分析图
轨道倾角分析图
轨道综合分析图
查看轨道综合分析图